Regional Weather Roundup
Issued by NWS Little Rock, AR

Home | Current Version | Previous Version | Graphics & Text | Print | Product List | Glossary On
Versions: 1 2 3 4 5 6 7 8 9 10 11 12 13 14 15 16 17 18 19 20 21 22 23 24 25 26 27 28 29 30 31 32 33 34 35 36 37 38 39 40 41 42 43 44 45 46 47 48 49 50
463
ASUS44 KLZK 261705
RWRLZK

WEATHER ROUNDUP FOR ARKANSAS
NATIONAL WEATHER SERVICE LITTLE ROCK AR
1100 AM CST SUN FEB 26 2017

NOTE: "FAIR" INDICATES FEW OR NO CLOUDS BELOW 12,000 FEET WITH NO
SIGNIFICANT WEATHER AND/OR OBSTRUCTIONS TO VISIBILITY.

ARZ001-003-010-029-261800-
NORTHWEST ARKANSAS

CITY           SKY/WX    TMP DP  RH WIND       PRES   REMARKS
FAYETTEVILLE   CLOUDY    46  23  40 S6        30.05S
FORT SMITH     CLOUDY    52  23  32 SE10      30.06F
HARRISON       MOSUNNY   48  23  37 S12G21    30.08F
BENTONVILLE    CLOUDY    45  25  45 SE3       30.07R
ROGERS         LGT RAIN  45  25  45 VRB3      30.08R
SILOAM SPGS    CLOUDY    43  25  49 E5        30.05S
HIGHFILL       LGT RAIN  44  27  51 NE6       30.05S
SPRINGDALE     PTSUNNY   45  23  42 SE5       30.07R
$$

ARZ004-005-016-261800-
NORTH CENTRAL ARKANSAS

CITY           SKY/WX    TMP DP  RH WIND       PRES   REMARKS
BATESVILLE     CLOUDY    50  23  34 E13       30.17F
FLIPPIN        PTSUNNY   45  25  45 E9        30.10F
MTN HOME       CLOUDY    43  24  47 S10       30.11F
$$

ARZ040-041-261800-
WEST CENTRAL ARKANSAS

CITY           SKY/WX    TMP DP  RH WIND       PRES   REMARKS
MENA           PTSUNNY   55  28  35 SE8G16    30.07F
MOUNT IDA      MOSUNNY   51  24  34 SE9G16    30.08S
$$

ARZ009-017-025-026-028-261800-
NORTHEAST ARKANSAS

CITY           SKY/WX    TMP DP  RH WIND       PRES   REMARKS
CORNING        FAIR      48  27  43 SE9       30.21F
JONESBORO      SUNNY     48  26  42 SE12      30.19S
NEWPORT        PTSUNNY   48  25  40 SE9       30.18F
WALNUT RIDGE   SUNNY     48  25  40 S10       30.19F
BLYTHEVILLE    SUNNY     50  21  32 SE9       30.21R
$$

ARZ022-023-033-042-044-261800-
CENTRAL ARKANSAS

CITY           SKY/WX    TMP DP  RH WIND       PRES   REMARKS
LITTLE ROCK    MOSUNNY   50  28  42 SE13      30.15F
JACKSONVILLE   SUNNY     51  29  42 S10       30.14F
SEARCY         SUNNY     51  26  37 SE9G16    30.18S
HOT SPRINGS    SUNNY     52  26  36 S9        30.12F
RUSSELLVILLE   SUNNY     51  26  37 MISG      30.11F
CLINTON        FAIR      52  27  37 S9        30.14F
$$

ARZ036-261800-
EAST ARKANSAS

CITY           SKY/WX    TMP DP  RH WIND       PRES   REMARKS
WEST MEMPHIS   SUNNY     50  24  36 S12       30.17F
$$

ARZ050-053-066-070-073-261800-
SOUTHWEST ARKANSAS

CITY           SKY/WX    TMP DP  RH WIND       PRES   REMARKS
ARKADELPHIA    PTSUNNY   53  31  42 SE6       30.14
CAMDEN         SUNNY     57  23  26 SE10G20   30.14F
TEXARKANA      PTSUNNY   54  29  38 SE10      30.10F
EL DORADO      MOSUNNY   55  24  30 SE12      30.13F
DE QUEEN       CLOUDY    49  33  54 E7        30.08F
$$

ARZ056-057-069-261800-
SOUTHEAST ARKANSAS

CITY           SKY/WX    TMP DP  RH WIND       PRES   REMARKS
PINE BLUFF     SUNNY     51  31  46 SE17      30.16F
STUTTGART      SUNNY     52  23  32 SE15G21   30.17S
MONTICELLO     SUNNY     53  23  31 SE6       30.16S

$$






USA.gov is the U.S. government's official web portal to all federal, state and local government web resources and services.